Location: Gu�tanj
(46.5431°N, 14.9692°E)
Time: 02:01:09
(UTC+00:00)

X-37B - Pass Details

Date: 28 September 2021
Orbit: 342 x 346 km, 45.0° (Epoch: 22 October)

Event Time Altitude Azimuth Distance (km) Brightness Sun altitude
Exits shadow 04:02:33 16° 264° (W) 1,020 2.0 -9.8°
Maximum altitude 04:04:45 64° 184° (S) 386 0.5 -9.4°
Drops below altitude 10° 04:07:37 10° 102° (ESE) 1,295 4.6 -8.9°
Sets 04:09:39 0° 99° (E) 2,136 6.1 -8.6°
